sat.trackr.live / text

‹ back to catalog

TIANQI-12

NORAD 48426 · 2021-039D

PAYLOAD ACTIVE UNKNOWN

§ Identity

Operator
Country
PRC
Launch date
2021-05-06
Launch site
XICLF
Launch vehicle
Mass (kg)
RCS (m²)

External: N2YO · Heavens-Above · Gunter

§ Orbital elements

Epoch: 2026-05-25T04:53:44.098368Z

Period
95.25 min
Inclination
34.9979°
Eccentricity
0.0002631
Mean motion
15.11809495 rev/d
Perigee alt
528.9 km
Apogee alt
532.5 km
Semi-major
6,908.8 km
B*
3.1662e-4
RAAN
107.8331°
Arg perigee
101.5569°
Mean anomaly
258.5438°
Rev number
27,674

§ Raw data

TIANQI-121 48426U 21039D   26145.20398262  .00005499  00000+0  31662-3 0  99962 48426  34.9979 107.8331 0002631 101.5569 258.5438 15.11809495276743

JSON: /api/v1/satellites/48426 · /tle

For live sub-satellite position, see the globe view (requires WebGL).

§ Visibility from observer

Set your observer location to see the next 7 days of passes ≥ 10°. The values pass through the URL so the page stays shareable.

No JS? Fill the form by hand. The geolocation button needs JavaScript.